User: anonymous   Login
Location: Morehead State University
(38.1872°N, 83.4339°W)
Time: 14:52:30
(UTC-04:00)
Language:

Okean 2 - Orbit

View from above orbital plane
View from above orbital plane
View from above satellite
View from above satellite

Ground track
Ground track

The orbit data is extracted from the following two-line orbital elements,

1 20510U 90018A   16240.73326512  .00000405  00000-0  31513-4 0  9994
2 20510  82.5140  93.1784 0010888 251.1964 154.1347 14.98632332437498
Epoch (UTC): 27 August 2016 17:35:54
Eccentricity: 0.0010888
inclination: 82.5140°
perigee height: 563 km
apogee height: 578 km
right ascension of ascending node: 93.1784°
argument of perigee: 251.1964°
revolutions per day: 14.98632332
mean anomaly at epoch: 154.1347°
orbit number at epoch: 43749

The dashed part of the orbit path shows where the satellite is in the earth's shadow,  

DLR